Date,TemperatureHighF,TemperatureAvgF,TemperatureLowF,DewpointHighF,DewpointAvgF,DewpointLowF,HumidityHigh,HumidityAvg,HumidityLow,PressureMaxIn,PressureMinIn,WindSpeedMaxMPH,WindSpeedAvgMPH,GustSpeedMaxMPH,PrecipitationSumIn
2013-7-1,83.0,69.5,54.4,60.2,54.5,49.3,97,64,33,30.14,30.06,8,0,15,0.00
2013-7-2,77.7,67.5,56.3,59.6,54.1,45.8,93,65,37,30.12,30.06,7,0,13,0.00
2013-7-3,73.9,63.1,51.7,61.6,55.8,49.9,97,78,56,30.09,30.01,4,0,8,0.00
2013-7-4,83.2,71.0,58.4,62.1,59.5,56.6,98,70,43,30.05,29.97,9,1,18,0.00
2013-7-5,85.3,74.4,60.7,65.1,62.0,58.4,94,68,43,30.02,29.94,11,2,20,0.00
2013-7-6,87.6,77.3,67.3,67.1,64.3,60.9,81,65,47,29.98,29.91,10,1,16,0.00
2013-7-7,88.0,78.7,70.4,72.8,68.7,64.9,85,72,53,29.93,29.86,9,1,20,0.00
2013-7-8,89.7,80.2,72.8,75.2,72.0,68.9,91,77,59,29.96,29.83,10,1,15,0.00
2013-7-9,85.1,76.8,70.8,75.6,71.8,69.0,98,85,68,29.97,29.78,13,2,22,0.19
2013-7-10,79.2,73.0,62.7,69.6,61.0,55.0,87,68,47,30.02,29.82,12,1,20,0.00
2013-7-11,83.8,70.9,57.5,62.6,59.2,55.2,96,70,42,30.10,30.02,4,0,7,0.00
2013-7-12,82.8,71.8,58.7,62.4,59.6,56.2,97,68,42,30.13,30.03,8,0,13,0.00
2013-7-13,82.8,71.9,62.3,66.6,61.9,58.5,89,72,53,30.13,30.04,8,0,16,0.00
2013-7-14,87.4,75.2,59.9,69.1,64.0,57.9,94,70,45,30.21,30.13,7,0,14,0.00
2013-7-15,90.3,78.5,66.9,72.9,69.4,65.1,95,76,52,30.26,30.19,4,0,9,0.00
2013-7-16,91.2,81.9,72.5,75.2,72.9,71.0,96,76,55,30.25,30.20,6,0,14,0.00
2013-7-17,94.0,84.7,76.7,74.8,72.5,70.1,87,69,48,30.26,30.14,4,0,10,0.00
2013-7-18,92.3,84.4,76.3,73.9,71.9,69.5,85,67,50,30.14,29.84,10,1,18,0.00
2013-7-19,91.2,82.1,72.0,72.6,67.3,59.6,73,62,38,29.84,29.73,8,2,18,0.00
2013-7-20,83.6,74.1,64.7,64.7,62.0,59.4,86,67,46,29.94,29.82,3,0,7,0.00
2013-7-21,73.0,65.5,61.2,64.8,60.2,55.1,97,84,69,29.97,29.87,4,0,13,1.55
2013-7-22,84.9,72.0,59.9,72.3,65.2,59.0,100,81,62,29.89,29.60,8,1,19,0.02
2013-7-23,73.5,67.9,58.7,65.7,55.4,51.7,83,65,49,29.99,29.72,6,0,13,0.00
2013-7-24,76.1,65.9,51.6,56.7,52.5,47.2,96,65,39,30.08,30.00,3,0,9,0.00
2013-7-25,77.9,66.5,56.9,66.6,59.6,53.8,90,79,62,30.03,29.93,10,1,16,0.02
2013-7-26,77.2,68.1,56.3,66.9,59.4,49.2,92,75,46,29.95,29.84,8,1,19,0.02
2013-7-27,60.2,54.0,49.1,51.5,47.5,42.9,90,79,61,29.96,29.86,6,0,13,0.02
2013-7-28,66.9,58.2,49.9,54.7,51.3,47.4,94,79,59,30.03,29.85,8,1,15,0.02
2013-7-29,78.3,65.2,53.1,59.4,55.1,50.3,91,71,49,30.14,30.03,3,0,8,0.00
2013-7-30,78.1,67.3,58.0,62.4,59.2,56.1,94,77,52,30.15,30.06,6,0,13,0.00
2013-7-31,79.6,69.2,63.9,66.1,63.0,59.9,93,81,60,30.06,29.94,6,0,12,0.05